#timestamp,LO_Frequency,Hit,StdDev 
1651032015.3,286047002.6,N
1651032035.1,286047002.7,N
1651032055.8,286046999.7,N
1651032075.7,286047001.9,N
1651032095.5,286047002.0,N
1651032145.4,286046999.2,E
1651032155.3,286046997.1,N
1651032175.1,286046996.7,P
1651032195.9,286046998.1,P
1651032215.7,286047001.4,N
1651032235.6,286047003.8,N
1651032255.4,286047002.9,N
1651032275.2,286047006.5,N
1651032295.1,286047007.4,N
1651032296.0,286047007.4,N
1651032315.8,286047008.3,N
1651032335.6,286047008.3,N
1651032355.5,286047006.1,N
1651032375.3,286047006.9,N
1651032395.2,286047004.8,N
1651032415.9,286047003.3,N
1651032435.7,286047005.4,N
1651032455.6,286047003.1,N
1651032475.4,286047001.7,N
1651032495.2,286047005.2,N
1651032515.1,286047004.2,N
1651032516.0,286047004.2,N
1651032535.8,286047001.7,N
1651032555.7,286047000.1,N
1651032575.5,286047000.5,N
1651032595.3,286046998.5,N
1651032615.2,286047000.3,N
1651032635.0,286047001.1,N
1651032635.9,286047001.1,N
1651032655.7,286047000.2,N
1651032675.6,286046998.5,N
1651032695.4,286046998.8,N
1651032715.3,286046998.7,N
1651032735.1,286046999.9,N
1651032736.0,286046999.9,N
1651032755.8,286046999.5,N
1651032775.7,286046998.5,N
1651032795.5,286047000.3,N
1651032815.3,286047000.7,N
1651032835.2,286046998.4,N
1651032855.0,286046998.4,N
1651032855.9,286046998.4,N
1651032875.8,286046998.9,N
1651032895.6,286046998.5,N
1651032915.4,286047000.5,N
1651032935.3,286046998.8,N
1651032955.1,286047001.7,N
1651032975.8,286047002.2,N
1651032995.7,286047001.7,N
1651033015.5,286047002.3,N
1651033035.4,286047001.5,N
1651033055.2,286046999.8,N
1651033075.0,286047000.9,N
1651033075.9,286047000.9,N
1651033095.8,286047001.0,N
1651033115.6,286047000.8,N
1651033135.4,286046998.7,N
1651033155.3,286046999.2,N
1651033175.1,286046997.4,N
1651033195.9,286046996.7,N
1651033215.7,286046999.2,N
1651033235.5,286047001.8,N
1651033255.4,286047002.1,N
1651033275.2,286047002.6,N
1651033295.0,286047001.0,N
1651033296.0,286047001.0,N
1651033315.8,286047000.5,N
1651033335.6,286047008.7,Y
1651033355.5,286047008.4,P
1651033375.3,286047007.1,N
1651033395.1,286047003.4,N
1651033415.9,286047006.9,N
1651033435.7,286047006.4,N
1651033455.6,286047004.2,N
1651033475.4,286047003.2,N
1651033495.2,286047006.5,N
1651033515.1,286047007.0,N
1651033516.0,286047007.0,N
1651033535.8,286047004.5,N
1651033555.6,286047003.4,N
1651033575.5,286047004.2,N
1651033595.3,286047001.8,N
1651033615.2,286047001.3,N
1651033635.9,286047004.1,N
1651033655.7,286047006.2,N
1651033675.6,286047011.0,Y
1651033695.4,286047003.6,P
1651033715.2,286047002.8,P
1651033735.1,286047003.8,P
1651033736.0,286047003.8,Y
1651033755.8,286047000.3,P
1651033775.7,286047000.7,N
1651033795.5,286046997.4,N
1651033815.3,286046994.0,N
1651033835.2,286046992.2,N
1651033855.0,286046990.1,N
1651033855.9,286046986.3,N
1651033875.8,286046992.7,N
1651033895.6,286046992.3,N
1651033915.4,286046991.7,N
1651033935.3,286046992.7,N
1651033955.1,286046992.3,N
1651033975.8,286046994.7,N
1651033995.7,286046998.8,N
1651034015.5,286046996.9,N
1651034035.4,286046995.8,N
1651034055.2,286046993.4,N
1651034075.0,286046996.2,N
1651034075.9,286046996.2,N
1651034095.8,286046993.8,N
1651034115.6,286046993.3,N
1651034135.4,286046993.4,N
1651034155.3,286046994.5,N
1651034175.1,286046994.8,N
1651034195.9,286046994.8,N
1651034215.7,286046991.7,N
1651034235.5,286046992.1,N
1651034255.4,286046991.9,N
1651034275.2,286046994.7,N
1651034295.0,286046991.7,N
1651034295.9,286046991.7,N
1651034315.8,286046991.9,Y
1651034335.6,286046999.1,P
1651034355.5,286046998.7,N
1651034375.3,286046999.0,N
1651034395.1,286047001.0,N
1651034415.9,286047001.0,N
1651034435.7,286046999.0,N
1651034455.5,286046998.7,N
1651034475.4,286046997.0,N
1651034495.2,286046999.1,N
1651034515.1,286046999.4,N
1651034516.0,286046999.4,N
1651034535.8,286046999.0,N
1651034555.6,286046998.9,N
1651034575.5,286047004.3,N
1651034595.3,286047003.3,N
1651034615.1,286047002.2,N
1651034635.9,286047003.2,N
1651034655.7,286047002.4,N
1651034675.6,286047000.2,N
1651034695.4,286047000.5,N
1651034715.2,286047000.9,N
1651034735.1,286047000.4,N
1651034736.0,286047000.4,N
1651034755.8,286046999.9,N
1651034775.6,286046998.1,N
1651034795.5,286047002.1,N
1651034815.3,286047000.5,N
1651034835.2,286047000.5,N
1651034855.9,286047002.1,N
1651034875.7,286047002.4,N
1651034895.6,286047005.5,Y
1651034915.4,286047006.0,P
1651034935.2,286047001.7,N
1651034955.1,286047001.2,N
1651034956.0,286047001.2,N
1651034975.8,286047000.0,N
1651034995.7,286046998.9,N
1651035015.5,286046996.9,N
1651035035.3,286046997.3,N
1651035055.2,286046997.9,N
1651035075.9,286046997.7,N
1651035095.7,286046997.4,N
1651035115.6,286046997.8,N
1651035135.4,286046994.9,N
1651035155.3,286046996.7,N
1651035175.1,286046997.0,N
1651035176.0,286046997.0,N
1651035195.8,286046997.2,N
1651035215.7,286046997.2,N
1651035235.5,286046999.2,N
1651035255.3,286046999.2,N
1651035275.2,286046997.0,N
1651035295.0,286046997.8,N
1651035295.9,286046997.8,N
1651035315.8,286046996.9,N
1651035335.6,286046996.9,N
1651035355.4,286046998.0,N
1651035375.3,286046996.3,N
1651035395.1,286046997.6,N
1651035415.8,286046999.4,N
1651035435.7,286046996.6,N
1651035455.5,286046997.5,N
1651035475.4,286046997.3,N
1651035495.2,286047002.8,N
1651035515.0,286047000.1,N
1651035515.9,286047000.1,N
1651035535.8,286047004.0,N
1651035555.6,286047002.1,N
1651035575.4,286047001.5,N
1651035595.3,286047004.2,N
